TimeCST,TemperatureF,Dew PointF,Humidity,Sea Level PressureIn,VisibilityMPH,Wind Direction,Wind SpeedMPH,Gust SpeedMPH,PrecipitationIn,Events,Conditions,WindDirDegrees,DateUTC
12:54 AM,-11.0,-17.0,75,30.35,10.0,Calm,Calm,-,N/A,,Partly Cloudy,0,2014-01-08 06:54:00
1:54 AM,-11.9,-18.0,74,30.36,10.0,Calm,Calm,-,N/A,,Partly Cloudy,0,2014-01-08 07:54:00
2:54 AM,-11.9,-18.0,74,30.37,10.0,Calm,Calm,-,N/A,,Partly Cloudy,0,2014-01-08 08:54:00
3:54 AM,-11.0,-16.1,78,30.38,10.0,Calm,Calm,-,N/A,,Clear,0,2014-01-08 09:54:00
4:54 AM,-11.0,-16.1,78,30.40,10.0,Calm,Calm,-,N/A,,Scattered Clouds,0,2014-01-08 10:54:00
5:54 AM,-13.0,-18.0,78,30.41,10.0,Calm,Calm,-,N/A,,Partly Cloudy,0,2014-01-08 11:54:00
6:54 AM,-11.9,-16.1,82,30.43,10.0,Calm,Calm,-,N/A,,Overcast,0,2014-01-08 12:54:00
7:54 AM,-11.0,-17.0,75,30.45,10.0,Calm,Calm,-,N/A,,Overcast,0,2014-01-08 13:54:00
8:54 AM,-7.1,-11.0,83,30.49,10.0,Calm,Calm,-,N/A,,Overcast,0,2014-01-08 14:54:00
9:54 AM,-2.9,-8.0,79,30.49,10.0,Calm,Calm,-,N/A,,Mostly Cloudy,0,2014-01-08 15:54:00
10:54 AM,3.9,-4.0,70,30.48,10.0,West,3.5,-,N/A,,Mostly Cloudy,270,2014-01-08 16:54:00
11:54 AM,5.0,-4.0,66,30.47,10.0,Calm,Calm,-,N/A,,Mostly Cloudy,0,2014-01-08 17:54:00
12:54 PM,7.0,-2.9,64,30.46,10.0,South,3.5,-,N/A,,Mostly Cloudy,190,2014-01-08 18:54:00
1:54 PM,9.0,-4.0,56,30.48,10.0,West,5.8,-,N/A,,Mostly Cloudy,280,2014-01-08 19:54:00
2:54 PM,8.1,-4.0,58,30.49,10.0,WNW,6.9,-,N/A,,Mostly Cloudy,300,2014-01-08 20:54:00
3:54 PM,7.0,-4.0,61,30.51,10.0,NW,4.6,-,N/A,,Mostly Cloudy,310,2014-01-08 21:54:00
4:54 PM,5.0,-5.1,63,30.53,10.0,WNW,3.5,-,N/A,,Mostly Cloudy,300,2014-01-08 22:54:00
5:54 PM,3.0,-6.0,66,30.54,10.0,NNW,3.5,-,N/A,,Mostly Cloudy,340,2014-01-08 23:54:00
6:54 PM,1.0,-5.1,75,30.56,10.0,Calm,Calm,-,N/A,,Scattered Clouds,0,2014-01-09 00:54:00
7:54 PM,-2.9,-8.0,79,30.57,10.0,Calm,Calm,-,N/A,,Partly Cloudy,0,2014-01-09 01:54:00
8:54 PM,-6.0,-9.9,83,30.57,10.0,Calm,Calm,-,N/A,,Clear,0,2014-01-09 02:54:00
9:54 PM,-5.1,-11.0,76,30.57,10.0,Calm,Calm,-,N/A,,Partly Cloudy,0,2014-01-09 03:54:00
10:54 PM,-9.0,-14.1,79,30.57,10.0,Calm,Calm,-,N/A,,Partly Cloudy,0,2014-01-09 04:54:00
11:54 PM,-11.9,-17.0,78,30.57,10.0,Calm,Calm,-,N/A,,Clear,0,2014-01-09 05:54:00